Terug naar catalogus

STARLINK-31328

ActiefCommunicatieVLEO
NORAD 58880·PAYLOAD·🇺🇸 United States

Gelanceerd Jan 29, 2024 vanaf Vandenberg Space Force Base

Loading…

Volgende Passages (komende 24 uur)

TLE

VersSource: CelesTrak SupGP

Epoch: Sep 15, 2026, 03:04 UTC

1 58880C 24020E   26258.12826389  .00027773  00000+0  82078-3 0  2580
2 58880  53.1598 146.5026 0001352  84.2160 111.8355 15.34368037    13

Volg STARLINK-31328 in realtime met AllMySat

Download on the App Store